Location: Charlottesville
(38.0290°N, 78.4770°W)
Time: 03:47:17
(UTC-04:00)

ISS - Pass Details

Date: 15 October 2017
Orbit: 401 x 408 km, 51.6° (Epoch: 23 October)

Event Time Altitude Azimuth Distance (km) Brightness Sun altitude
Rises 20:10:17 0° 299° (WNW) 2,323 1.2 -19.4°
Reaches altitude 10° 20:12:34 10° 286° (WNW) 1,461 0.1 -19.8°
Maximum altitude 20:15:22 26° 227° (SW) 833 -1.8 -20.4°
Enters shadow 20:16:43 20° 189° (S) 1,012 -1.8 -20.6°
